[Iaude] MPEC B116: 2024 BS2 [a=1.49,e=0.62,i=29.1,H=20.0]

mpec at marsden.cfa.harvard.edu mpec at marsden.cfa.harvard.edu
Tue Jan 23 13:48:39 EST 2024


M.P.E.C. 2024-B116                             Issued 2024 January 23, 18:46 UT

     The Minor Planet Electronic Circulars contain information on unusual
         minor planets, routine data on comets and natural satellites,
         and occasional editorial announcements.  They are published
    on behalf of Division F of the International Astronomical Union by the
          Minor Planet Center, Smithsonian Astrophysical Observatory,
                          Cambridge, MA 02138, U.S.A.
			  
             Prepared using the Tamkin Foundation Computer Network

                              MPC at CFA.HARVARD.EDU
            URL https://www.minorplanetcenter.net/    ISSN 1523-6714

                                    2024 BS2                                    


Observations:
     K24B02S* C2024 01 21.35785909 05 29.992+73 09 55.13         21.11wXEB116F51
     K24B02S  C2024 01 21.37149509 05 18.686+73 09 21.29         20.94wXEB116F51
     K24B02S  C2024 01 21.38584009 05 06.783+73 08 45.48         20.95wXEB116F51
     K24B02S  C2024 01 21.51147809 03 23.342+73 03 27.89         20.19GVEB116F51
     K24B02S  C2024 01 21.51212409 03 22.813+73 03 26.03         20.95GVEB116F51
     K24B02S KB2024 01 21.81799708 59 25.96 +72 49 59.0          20.4 GXEB116I93
     K24B02S KB2024 01 21.83142908 59 15.68 +72 49 25.3          20.3 GXEB116I93
     K24B02S KB2024 01 21.84456208 59 05.57 +72 48 51.8          21.0 GXEB116I93
     K24B02S KB2024 01 21.85594 08 58 56.882+72 48 23.15         20.2 GXEB116J57
     K24B02S KB2024 01 21.87662 08 58 40.618+72 47 30.88         20.1 GXEB116J57
     K24B02S KC2024 01 21.89565008 58 25.20 +72 46 42.7          21.2 GVEB116L01
     K24B02S KC2024 01 21.89817408 58 23.26 +72 46 36.0          21.2 GVEB116L01
     K24B02S pC2024 01 21.90069908 58 21.21 +72 46 29.8          20.7 GVEB116L01
     K24B02S KB2024 01 21.94675 08 57 45.68 +72 44 29.0                VEB116204
     K24B02S KB2024 01 21.97862 08 57 20.89 +72 43 05.5          20.5 GVEB116204
     K24B02S HC2024 01 23.09964 08 43 53.48 +71 51 52.5          20.5 GVEB116204
     K24B02S  C2024 01 23.41387108 40 26.177+71 37 04.83         20.35GVEB116F52
     K24B02S  C2024 01 23.41468808 40 25.589+71 37 02.96         21.14GVEB116F52

Observer details:
204 Schiaparelli Observatory.  Observers L. Buzzi, G. Galli.  0.84-m f/3.5
    reflector + CMO.
F51 Pan-STARRS 1, Haleakala.  Observers J. Herman, T. Lowe, P. Minguez, A.
    Schultz, I. Smith.  Measurers K. Chambers, T. de Boer, J. Fairlamb, H.
    Gao, M. Huber, C.-C. Lin, E. Magnier, Y. Ramanjooloo, R. Wainscoat, R.
    Weryk.  1.8-m Ritchey-Chretien + CCD.
F52 Pan-STARRS 2, Haleakala.  Observers J. Herman, T. Lowe, P. Minguez, A.
    Schultz, I. Smith.  Measurers K. Chambers, T. de Boer, J. Fairlamb, H.
    Gao, M. Huber, C.-C. Lin, E. Magnier, Y. Ramanjooloo, R. Wainscoat, R.
    Weryk.  1.8-m Ritchey-Chretien + CCD.
I93 St Pardon de Conques.  Observer F. Losse.  0.40-m f/3.7 reflector + CMO.
J57 Centro Astronomico Alto Turia, Valencia.  Observer A. Fornas.  Measurers
    A. Fornas, G. Fornas, E. Arce, V. Mas.  0.43-m f/6.8 Reflector 0.4m + CMO.
L01 Visnjan Observatory, Tican.  Observer K. Korlevic.  1.0-m f/2.9 reflector
    + CCD.

Orbital elements:
2024 BS2                                                 Earth MOID = 0.4229 AU
Epoch 2023 Sept. 13.0 TT = JDT 2460200.5                MPC                     
M 337.13428              (2000.0)            P               Q                  
n   0.54073482     Peri.   16.75659     +0.97318165     +0.09763859             
a   1.4921523      Node   334.64994     -0.22307840     +0.62160155             
e   0.6220610      Incl.   29.11001     +0.05615596     +0.77722469             
P   1.82           H   20.09          G   0.15           U   9                  
Residuals in seconds of arc
240121 F51  0.4+  0.1+    240121 I93  0.3+  0.3-    240121 L01  0.5-  0.3+
240121 F51  0.2+  0.1-    240121 I93  0.6+  0.3-    240121 204  0.1+  0.0
240121 F51  0.0   0.3-    240121 J57  0.4+  0.2-    240121 204  0.0   0.1+
240121 F51  0.2-  0.2+    240121 J57  0.4-  0.5+    240123 204  0.1+  0.1-
240121 F51  0.2-  0.0     240121 L01  0.3-  0.1+    240123 F52  0.1+  0.2-
240121 I93  0.4-  0.9-    240121 L01  0.2-  0.1-    240123 F52  0.1-  0.2+

Ephemeris:
2024 BS2                 a,e,i = 1.49, 0.62, 29                  q = 0.5639
Date    TT    R. A. (2000) Decl.     Delta      r    Elong.  Phase     V
2023 12 24    15 25 07.5 +60 17 15   0.4745  1.0917    89.9    64.3    20.9
...
2024 01 08    13 14 36.5 +74 05 44   0.4905  1.2487   111.4    47.2    20.8
...
2024 01 16    10 36 49.7 +75 50 54   0.5175  1.3278   121.2    39.3    20.8
...
2024 01 22    08 57 04.7 +72 42 04   0.5492  1.3850   126.8    34.7    20.9
2024 01 23    08 45 03.2 +71 56 31   0.5555  1.3944   127.6    34.0    20.9
2024 01 24    08 34 13.2 +71 08 34   0.5621  1.4037   128.3    33.4    21.0
...
2024 01 30    07 48 46.2 +65 54 18   0.6079  1.4583   131.1    30.6    21.1
...
2024 02 07    07 19 40.4 +58 52 42   0.6848  1.5283   131.5    28.9    21.5
...
2024 02 22    07 04 25.3 +47 55 50   0.8711  1.6509   125.0    29.4    22.2

A. U. Tomatic                (C) Copyright 2024 MPC           M.P.E.C. 2024-B116





More information about the Iaude mailing list